,

(GMT )
Teruel

Tiempo Historia de LETL - Agosto, 2017

Change the Weather History Date:

Domingo, Agosto 13, 2017

  Actual Average Record
Temperature  
Temperatura media 70 ° F -  
Temperatura máxima 84 ° F - - ()
Temperatura mínima 55 ° F - - ()
Cooling Degree Days 4    
Growing Degree Days 20 (Base 50)    
Moisture  
Punto de rocío 50 ° F    
Average Humidity 55    
Maximum Humidity 82    
Minimum Humidity 19    
Precipitación  
Precipitación 0.00 pul - - ()
Presión al nivel del mar  
Presión al nivel del mar 30.17 pul    
Viento  
Velocidad del viento 8 mph ()    
Velocidad máxima del viento 18 mph    
Max Gust Speed -    
Visibilidad 6.2 Millas    
Eventos      
T = Trace of Precipitation, MM = Missing Value Source: Averaged Metar Reports

Daily Weather History Graph

Daily Weather History Graph

Search for Another Location

Airport or City:

Trip Planner

Search our weather history database for the weather conditions in past years. The results will help you decide how hot, cold, wet, or windy it might be!

Date:

Astronomía

Aug. 13, 2017 Salida Puesta
Hora real 7:13 AM CEST 9:04 PM CEST
Crepúsculo civil 6:44 AM CEST 9:34 PM CEST
Crepúsculo náutico 6:08 AM CEST 10:09 PM CEST
Crepúsculo astronómico 5:30 AM CEST 10:48 PM CEST
Luna Sin salida de luna 12:58 PM CEST (8/13)
Horas de luz 14h 49m
Horas de luz
13h 51m
Gibosa menguante, 68% of the Moon is Illuminated
Ago 13
Gibosa menguante
Ago 15
Cuarto menguante
Ago 21
Nueva
Ago 29
Cuarto creciente
Sep 6
Luna llena

Hourly Weather History & Observations

Hora (CEST) Temp. Índice de calor Punto de rocío Humedad Presión Visibilidad Wind Dir Velocidad del viento Velocidad de ráfagas Precip Eventos Condiciones
1:30 AM 60.8 ° F - 50.0 ° F 68% 30.24 pul 6.2 mi SE 5.8 mph - N/A   Desconocido
2:30 AM 59.0 ° F - 50.0 ° F 72% 30.24 pul 6.2 mi ESE 5.8 mph - N/A   Desconocido
3:00 AM 59.0 ° F - 50.0 ° F 72% 30.21 pul 6.2 mi ESE 6.9 mph - N/A   Desconocido
4:00 AM 57.2 ° F - 50.0 ° F 77% 30.21 pul 6.2 mi ESE 6.9 mph - N/A   Desconocido
4:30 AM 57.2 ° F - 50.0 ° F 77% 30.21 pul 6.2 mi ESE 5.8 mph - N/A   Desconocido
5:00 AM 57.2 ° F - 50.0 ° F 77% 30.21 pul 6.2 mi SSE 3.5 mph - N/A   Desconocido
5:30 AM 57.2 ° F - 50.0 ° F 77% 30.21 pul 6.2 mi Sur 5.8 mph - N/A   Desconocido
6:00 AM 55.4 ° F - 50.0 ° F 82% 30.21 pul 6.2 mi Sur 6.9 mph - N/A   Desconocido
6:30 AM 55.4 ° F - 50.0 ° F 82% 30.21 pul 6.2 mi SSO 5.8 mph - N/A   Desconocido
7:00 AM 55.4 ° F - 48.2 ° F 77% 30.21 pul 6.2 mi SO 3.5 mph - N/A   Desconocido
8:30 AM 57.2 ° F - 48.2 ° F 72% 30.21 pul 6.2 mi Sur 3.5 mph - N/A   Desconocido
9:00 AM 59.0 ° F - 50.0 ° F 72% 30.21 pul 6.2 mi ESE 4.6 mph - N/A   Desconocido
9:30 AM 62.6 ° F - 50.0 ° F 63% 30.21 pul 6.2 mi ESE 4.6 mph - N/A   Desconocido
10:00 AM 64.4 ° F - 50.0 ° F 59% 30.21 pul 6.2 mi SE 5.8 mph - N/A   Desconocido
11:30 AM 73.4 ° F - 46.4 ° F 38% 30.21 pul 6.2 mi SE 9.2 mph - N/A   Desconocido
12:30 PM 78.8 ° F - 48.2 ° F 34% 30.18 pul 6.2 mi SE 9.2 mph - N/A   Desconocido
1:30 PM 80.6 ° F - 46.4 ° F 30% 30.18 pul 6.2 mi ESE 11.5 mph - N/A   Desconocido
2:00 PM 82.4 ° F - 42.8 ° F 25% 30.15 pul 6.2 mi SE 9.2 mph - N/A   Desconocido
3:00 PM 84.2 ° F - 39.2 ° F 20% 30.15 pul 6.2 mi SSE 9.2 mph - N/A   Desconocido
4:00 PM 84.2 ° F - 37.4 ° F 19% 30.12 pul 6.2 mi SSE 10.4 mph - N/A   Desconocido
4:30 PM 84.2 ° F - 46.4 ° F 27% 30.12 pul 6.2 mi ESE 13.8 mph - N/A   Desconocido
5:00 PM 84.2 ° F - 46.4 ° F 27% 30.12 pul - SSE 13.8 mph - N/A   Despejado
5:30 PM 82.4 ° F 81.4 ° F 53.6 ° F 37% 30.09 pul - SE 17.3 mph - N/A   Despejado
7:00 PM 80.6 ° F 80.5 ° F 55.4 ° F 42% 30.09 pul 6.2 mi SE 18.4 mph - N/A   Desconocido
7:30 PM 80.6 ° F - 50.0 ° F 34% 30.09 pul 6.2 mi Sur 15.0 mph - N/A   Desconocido
8:00 PM 78.8 ° F - 51.8 ° F 39% 30.09 pul 6.2 mi SSE 16.1 mph - N/A   Desconocido
8:30 PM 75.2 ° F - 55.4 ° F 50% 30.12 pul 6.2 mi SE 17.3 mph - N/A   Desconocido
9:00 PM 73.4 ° F - 55.4 ° F 53% 30.12 pul 6.2 mi SE 17.3 mph - N/A   Desconocido
9:30 PM 71.6 ° F - 55.4 ° F 57% 30.12 pul 6.2 mi SE 16.1 mph - N/A   Desconocido
10:30 PM 68.0 ° F - 57.2 ° F 68% 30.15 pul 6.2 mi SE 13.8 mph - N/A   Desconocido
11:00 PM 66.2 ° F - 55.4 ° F 68% 30.18 pul 6.2 mi SE 13.8 mph - N/A   Desconocido
11:30 PM 66.2 ° F - 55.4 ° F 68% 30.18 pul 6.2 mi SE 12.7 mph - N/A   Desconocido